Location: Palau
(42.3086°N, 3.1507°E)
Time: 08:59:05
(UTC+00:00)

X-37B - Visible Passes

Search period start: 06 March 2021 00:00
Search period end: 16 March 2021 00:00
Orbit: 383 x 391 km, 45.0° (Epoch: 27 February)

Date Brightness Start Highest point End Pass type
(mag) Time Alt. Az. Time Alt. Az. Time Alt. Az.
10 Mar 2.8 18:39:21 10° SSE 18:40:42 12° SE 18:41:13 12° SE visible
11 Mar 1.4 19:15:36 10° SW 19:18:22 36° SSE 19:18:22 36° SSE visible
12 Mar 2.2 18:17:50 10° SSW 18:20:21 21° SE 18:22:53 10° E visible
12 Mar 2.3 19:53:31 10° WSW 19:55:23 32° WSW 19:55:23 32° WSW visible
13 Mar 0.7 18:55:12 10° WSW 18:58:22 62° SSE 18:59:59 26° E visible
13 Mar 4.0 20:31:57 10° W 20:32:16 12° W 20:32:16 12° W visible
14 Mar 0.8 19:33:27 10° W 19:36:39 62° NNW 19:36:45 62° N visible
15 Mar 0.6 18:35:01 10° WSW 18:38:14 85° NNW 18:41:10 12° ENE visible
15 Mar 3.0 20:11:56 10° WNW 20:13:28 24° WNW 20:13:28 24° WNW visible
